Terminal Aerodrome Forecast
Issued by NWS Houston/Galveston TX

Home | Current Version | Previous Version | Text Only | Print | Product List | Glossary On
Versions: 1 2 3 4 5 6 7 8 9 10 11 12 13 14 15 16 17 18 19 20 21 22 23 24 25 26 27 28 29 30 31 32 33 34 35 36 37 38 39 40 41 42 43 44 45
000
FTUS44 KHGX 071120
TAFHOU
TAF
KHOU 071120Z 0712/0812 17006KT P6SM SCT020 BKN250
     FM071500 16014G21KT P6SM SCT035 SCT250
     FM080200 16007KT P6SM SCT025 SCT250=

USA.gov is the U.S. government's official web portal to all federal, state and local government web resources and services.